Regional Weather Roundup
Issued by NWS Sioux Falls, SD

Home | Current Version | Previous Version | Text Only | Print | Product List | Glossary On
Versions: 1 2 3 4 5 6 7 8 9 10 11 12 13 14 15 16 17 18 19 20 21 22 23 24 25 26 27 28 29 30 31 32 33 34 35 36 37 38 39 40 41 42 43 44 45 46 47 48 49 50
000
ASUS43 KFSD 271710
RWRFSD

WEATHER ROUNDUP FOR SE SOUTH DAKOTA/SW MINNESOTA/NW IOWA
NATIONAL WEATHER SERVICE SIOUX FALLS SD
1100 AM CST TUE JAN 27 2015

NOTE: "FAIR" INDICATES FEW OR NO CLOUDS BELOW 12,000 FEET WITH NO
SIGNIFICANT WEATHER AND OR OBSTRUCTIONS TO VISIBILITY.


SDZ038>040-050-052>070-271800-
SOUTHEAST SOUTH DAKOTA

CITY           SKY/WX    TMP DP  RH WIND       PRES   REMARKS
CHAMBERLAIN    SUNNY     41  34  76 SE8       29.98S
HURON          SUNNY     38  33  82 S15G25    30.02S
MADISON        FOG       28  28 100 S9        30.06S VSB<1/4 WCI  20
MITCHELL       SUNNY     40  35  83 S13       30.05S
SIOUX FALLS    FOG       31  30  96 SE7       30.08F VSB 3/4 WCI  24
WINNER         FAIR      50  36  58 CALM      29.96F
YANKTON        SUNNY     39  34  81 SE8       30.08F
$$

MNZ071-072-080-081-089-090-097-098-271800-
SOUTHWEST MINNESOTA

CITY           SKY/WX    TMP DP  RH WIND       PRES   REMARKS
FAIRMONT       CLOUDY    34  25  69 SE9       30.14F WCI  26
JACKSON        MOSUNNY   34  32  93 E10       30.13R WCI  26
LUVERNE        FOG       32  32 100 S8        30.11S VSB 1/4 WCI  25
MARSHALL       CLOUDY    28  27  93 E7        30.13S WCI  21
MONTEVIDEO     CLOUDY    30  30 100 S10       30.14S FOG     WCI  21
PIPESTONE      FOG       30  28  93 SE7       30.08R VSB 1/4 WCI  23
REDWOOD FALLS  CLOUDY    32  29  88 S10       30.15R WCI  24
TRACY          FOG       31  31  99 SE9       30.13R VSB 3/4 WCI  23
WINDOM         CLOUDY    34  30  86 E8        30.13R WCI  27
WORTHINGTON    CLOUDY    30  28  93 SE13      30.11S WCI  20
$$

IAZ001>003-012>014-020>022-031-032-NEZ013-014-SDZ071-271800-
NORTHWEST IOWA

CITY           SKY/WX    TMP DP  RH WIND       PRES   REMARKS
CHEROKEE       SUNNY     37  33  87 S9        30.13F
DENISON        SUNNY     39  34  81 SE7       30.13R
ESTHERVILLE    MOSUNNY   32  30  92 SE8       30.13S WCI  25
LE MARS        CLOUDY    32  32 100 SE8       30.13S WCI  25
ORANGE CITY    CLOUDY    34  30  86 SE6       30.11S FOG     WCI  29
SHELDON        CLOUDY    30  32 100 SE13      30.10S FOG     WCI  20
SIOUX CITY     MOSUNNY   38  34  85 SE13      30.13S
SPENCER        MOSUNNY   34  31  88 E7        30.13R WCI  28
STORM LAKE     SUNNY     36  34  93 SE10      30.13S
$$

ABBREVIATIONS USED IN REMARKS
   TC - TEMPERATURE IN CELSIUS
  WCI - WIND CHILL INDEX
   HX - HEAT INDEX
  VSB - VISIBILITY



USA.gov is the U.S. government's official web portal to all federal, state and local government web resources and services.